RH
100 98 100 100 100 100 100 100 100 98 81 83 95 36 34 28 29 28 17 8 8 13 15 18 26 52 48 50 41 48 65 77 85 97 94 97 96 96 98 100 70 61 48 32
100 100 100 100 100 100 98 96 95 100 96 86 57 24 23 26 32 31 24 21 16 14 21 22 35 60 70 66 65 62 66 88 91 78 85 90 96 97 98 98 95 56 78 80
100 100 100 100 100 88 84 83 86 99 91 58 37 15 13 15 16 30 37 35 30 28 23 27 52 67 86 82 93 96 94 95 89 90 98 97 95 97 97 98 98 69 81 86
100 100 100 100 99 93 98 100 99 95 47 25 18 11 10 8 25 36 51 68 73 51 32 51 68 86 100 97 92 98 100 100 100 100 98 96 96 96 96 96 100 86 76 84
100 100 100 86 95 94 95 86 62 40 20 16 26 44 53 43 70 73 64 82 76 68 70 93 98 95 98 99 98 99 100 100 100 99 97 98 97 97 96 97 98 94 94 97
94 89 99 90 90 80 93 61 44 21 11 6 17 39 74 100 88 83 74 72 75 57 56 71 90 94 96 100 100 100 100 99 97 100 88 81 85 96 92 94 96 97 97 97
70 88 56 38 25 28 34 51 35 15 10 10 15 47 88 96 87 89 65 93 93 90 81 73 72 92 96 98 99 100 93 98 86 99 97 100 88 97 100 87 98 94 96 96
43 54 67 60 46 42 35 27 23 18 14 10 9 16 39 34 12 14 24 82 84 77 77 80 81 92 96 98 98 97 98 100 100 99 100 97 94 93 99 92 96 97 95 96
28 37 42 48 51 51 45 40 31 20 17 17 15 14 13 13 14 14 11 16 77 88 84 87 72 79 94 98 99 98 96 97 100 99 100 100 97 98 98 77 98 98 98 98
31 37 39 43 44 48 54 60 59 53 48 45 44 43 41 37 28 23 19 13 10 16 24 55 72 88 87 88 96 97 98 99 98 98 99 99 98 99 98 98 100 100 99 96
33 38 46 45 46 40 39 47 52 55 53 48 44 40 36 30 26 18 14 14 11 10 9 26 43 38 37 34 37 57 69 84 93 96 97 99 98 98 98 98 99 99 98 98
38 40 40 39 40 39 33 40 73 74 71 65 50 41 36 30 26 21 18 14 15 20 14 10 9 13 15 16 28 38 41 43 58 69 79 90 95 96 98 98 98 98 98 98
34 38 39 38 36 32 45 62 73 85 92 84 75 65 52 42 43 39 36 36 34 40 46 40 31 32 32 41 49 38 62 87 75 62 63 64 64 80 91 95 94 93 96 98
33 32 28 22 22 26 48 75 79 82 79 81 83 84 79 72 55 46 47 41 40 43 50 55 54 47 41 42 47 54 68 75 78 75 68 75 68 68 68 69 68 63 61 63
62 54 57 51 57 50 48 47 76 78 74 80 84 85 91 87 84 76 70 62 52 48 43 40 39 37 34 36 32 44 50 47 48 54 59 74 81 89 86 82 77 70 66 60
43 50 62 80 94 96 93 98 96 90 84 87 99 99 100 100 85 73 66 59 51 41 32 29 24 24 26 27 26 25 22 23 26 34 46 52 59 65 81 93 98 97 91 90
82 95 89 77 68 72 75 87 94 100 97 88 85 79 77 73 52 44 39 30 28 30 26 23 18 16 18 24 24 23 22 21 25 29 29 30 32 46 56 57 65 71 64 60
72 75 69 61 62 61 52 44 42 45 47 45 46 48 42 36 31 31 30 29 27 25 24 25 26 24 26 30 32 36 39 37 36 38 34 32 32 33 33 36 42 48 53 55
63 56 56 63 69 61 51 41 37 42 50 54 52 47 40 35 32 30 29 28 27 26 26 25 25 25 25 25 26 28 29 32 35 38 40 42 46 48 47 44 43 44 44 44
80 87 83 74 63 54 48 40 36 34 34 35 35 35 35 33 32 30 30 30 29 29 29 28 27 27 26 25 24 25 25 24 24 25 26 28 30 32 38 42 44 46 46 47
56 43 37 35 38 41 41 40 39 38 36 35 32 30 30 31 32 33 33 30 25 22 19 17 16 16 15 15 14 13 13 14 16 19 22 26 28 29 30 31 31 30 30 30
44 49 48 45 43 42 42 40 38 38 38 37 37 36 36 34 29 24 20 18 16 15 13 11 10 10 9 9 9 9 9 9 10 10 11 11 14 18 23 26 28 29 29 28
52 51 48 44 41 38 38 40 41 41 40 39 39 37 30 23 21 19 16 12 9 8 9 9 10 10 10 10 10 9 8 8 8 8 8 9 10 12 12 12 12 13 14 14
52 46 44 46 46 43 44 43 45 46 44 41 34 26 23 20 15 11 10 11 12 15 17 17 18 17 16 15 14 14 15 16 16 15 13 12 12 11 11 11 10 10 10 10
55 50 50 51 49 50 51 52 51 49 44 36 27 23 16 11 11 12 13 17 21 23 26 26 25 24 23 22 20 19 18 18 18 17 17 18 20 20 19 18 17 16 15 14
63 64 60 60 56 56 55 54 54 48 40 29 24 15 10 12 14 15 19 24 29 33 34 34 34 33 31 29 28 27 24 22 22 22 23 23 23 23 22 20 20 19 19 20
71 68 66 65 67 67 67 65 56 47 33 28 18 11 11 13 16 17 22 28 37 42 43 40 40 39 37 34 33 35 35 31 30 30 30 26 23 21 21 24 26 29 31 34
Wind_Speed
9 12 17 19 19 19 17 18 19 21 25 23 19 17 16 17 18 17 19 23 25 28 31 33 28 29 31 34 34 35 36 38 40 43 47 48 41 30 26 27 27 28 29 32
16 22 21 17 21 21 20 20 20 21 21 22 19 20 19 17 18 17 18 19 24 27 29 30 30 31 33 36 40 40 40 42 45 49 51 51 41 36 38 36 32 33 31 30
9 15 20 17 15 17 15 17 22 23 18 14 15 18 20 19 17 16 16 18 22 24 23 26 30 31 38 38 41 45 46 46 43 45 51 47 40 39 41 39 38 36 34 30
12 8 10 13 15 16 15 16 15 16 17 18 17 19 19 21 18 18 17 17 14 15 19 18 17 26 40 36 40 45 47 48 48 48 46 50 43 43 42 38 42 40 37 34
12 16 16 13 14 13 14 13 12 15 16 17 18 17 15 17 17 18 19 19 15 16 16 19 23 20 30 35 43 44 45 51 49 49 50 45 41 46 44 40 46 44 40 41
12 8 7 7 7 11 11 13 14 15 16 18 19 19 15 14 14 15 16 18 16 17 17 19 18 18 27 39 42 42 48 51 50 53 56 46 44 44 44 42 44 46 45 44
5 5 7 7 7 9 12 15 14 15 17 17 19 19 18 17 16 18 18 14 11 12 15 17 20 22 21 14 28 51 50 45 48 49 56 44 46 58 52 48 56 49 48 50
5 7 10 10 10 10 11 11 13 14 17 18 19 20 21 21 19 17 19 17 20 20 19 18 18 21 23 20 23 25 37 58 57 70 59 50 73 59 56 60 58 57 53 48
4 6 8 10 13 15 16 14 14 15 15 17 18 18 18 17 17 17 19 20 21 22 22 20 17 18 20 20 17 20 23 31 40 51 49 56 54 52 55 61 55 59 60 54
7 8 10 11 13 16 17 20 21 21 22 22 22 22 23 23 23 22 23 24 23 22 24 26 27 28 27 26 24 22 20 19 23 29 33 45 49 62 66 61 65 67 70 74
10 11 12 14 16 17 17 18 19 19 20 23 25 26 26 25 25 24 25 26 25 24 27 30 31 32 32 33 33 34 31 30 29 26 25 27 31 30 36 35 39 50 49 58
13 14 15 15 17 19 20 19 19 19 19 19 19 20 20 20 20 20 22 24 25 23 24 28 33 34 35 35 33 33 32 31 32 33 34 35 33 31 31 30 28 29 30 31
14 14 16 16 19 19 19 20 20 21 21 22 22 22 21 20 20 21 22 24 25 27 24 23 26 30 31 31 32 35 35 33 33 33 33 35 36 34 33 34 34 34 33 32
14 15 16 15 19 20 21 21 21 22 22 23 24 26 27 27 26 26 26 26 27 28 29 28 28 30 32 32 31 30 32 35 36 36 36 37 38 38 37 37 38 37 37 37
12 14 14 15 16 18 20 22 24 22 22 24 25 26 27 28 29 29 29 29 30 31 33 36 36 35 35 36 36 39 38 37 37 39 39 39 41 43 43 43 44 43 43 43
14 16 16 18 16 16 19 23 24 24 26 27 29 30 31 31 31 34 37 39 40 41 41 42 43 45 45 46 46 46 46 46 46 46 45 45 46 46 46 47 49 50 50 51
13 15 14 16 19 21 19 20 25 31 28 29 32 35 39 40 39 40 42 44 45 46 50 50 52 54 55 54 54 56 57 57 57 57 56 55 55 54 54 54 55 55 55 56
15 15 17 19 20 22 23 24 26 29 32 34 37 40 43 45 48 50 50 51 51 54 56 57 58 61 62 62 63 63 62 62 63 63 63 64 64 64 63 63 63 64 64 64
15 18 21 21 21 23 25 28 32 36 38 38 39 40 42 43 45 48 50 53 54 56 58 59 60 61 62 63 64 65 64 63 62 62 63 64 65 67 67 68 68 68 69 69
19 20 20 20 20 21 23 26 29 32 36 39 42 44 46 49 52 55 57 61 64 65 66 67 68 68 68 68 67 68 68 69 69 69 68 67 67 67 67 67 67 68 69 70
11 13 15 18 21 24 27 30 33 36 39 42 44 48 52 56 60 64 67 67 66 65 64 64 64 64 65 65 65 65 65 64 65 67 68 70 71 71 71 70 69 68 68 67
12 14 18 22 26 28 31 33 36 39 42 46 49 53 57 59 61 61 62 63 61 63 63 64 63 63 63 63 63 64 65 65 65 65 66 67 69 70 71 72 72 72 71 71
16 19 22 25 29 32 34 36 38 40 45 49 54 57 59 60 59 60 60 61 60 57 53 50 49 48 48 48 50 52 54 56 59 61 63 64 65 66 67 68 68 69 69 69
19 22 28 32 34 36 38 40 42 45 48 52 57 60 59 61 62 59 54 49 45 42 40 38 37 37 38 38 40 40 41 42 43 45 47 51 54 56 58 61 62 63 63 63
26 30 33 37 39 41 41 42 46 48 51 56 58 60 63 59 53 46 42 38 37 35 33 33 33 32 33 33 34 35 35 36 37 37 38 39 39 40 42 43 45 46 47 49
31 35 38 42 44 44 44 46 49 51 56 60 60 61 55 47 41 39 36 35 33 32 31 30 30 31 31 31 31 31 32 32 33 33 34 34 35 36 36 37 38 38 39 39
36 39 43 46 47 46 46 48 50 54 58 62 62 56 47 42 39 37 35 33 32 31 30 30 30 30 31 30 30 29 29 29 29 30 30 31 31 31 31 31 31 31 30 30
Wind_Direction
196 182 198 173 197 200 199 209 185 209 216 222 233 270 258 261 261 264 264 256 256 255 260 262 259 257 249 245 242 235 232 230 227 230 234 242 239 226 225 237 246 244 247 250
117 178 177 169 151 193 202 205 204 210 236 235 249 258 262 263 259 260 266 268 264 260 260 269 266 263 252 241 237 230 231 234 236 236 236 239 235 233 242 242 244 245 248 252
160 143 163 189 206 201 208 202 211 222 234 238 249 255 260 264 269 267 276 276 273 274 272 267 266 268 256 245 234 225 229 236 235 236 239 240 237 239 248 246 244 248 250 252
206 196 191 195 206 221 223 217 216 221 239 238 250 262 265 269 283 278 278 282 290 288 278 277 269 250 229 228 233 224 225 229 238 241 248 256 238 244 246 241 241 246 247 251
221 188 202 231 241 249 238 227 227 233 238 241 238 253 276 280 284 287 283 281 298 295 294 270 268 278 200 211 227 224 225 231 236 239 246 246 245 250 247 245 243 246 249 255
154 154 158 230 240 238 237 245 238 238 240 240 239 253 270 280 285 300 315 300 294 294 290 275 271 245 287 231 227 224 227 231 236 241 247 246 243 250 250 250 250 252 253 260
175 192 213 238 256 245 242 247 242 244 245 248 248 250 261 272 284 291 303 304 305 304 294 288 279 261 261 266 228 211 228 216 235 235 229 235 235 230 231 249 251 256 258 266
216 232 245 241 247 253 258 257 259 254 252 253 256 257 262 272 281 287 288 288 290 304 299 294 297 287 276 274 261 246 225 225 235 230 233 252 234 221 212 233 239 246 255 265
242 252 258 261 255 255 255 256 260 266 266 263 262 263 268 273 278 282 286 284 281 286 293 292 289 298 295 274 275 261 257 261 230 235 241 240 231 217 209 243 230 238 252 247
262 272 280 280 270 265 262 261 260 261 266 269 272 274 277 278 280 282 283 283 279 278 288 291 292 291 290 293 291 297 275 259 249 253 243 229 222 230 226 223 233 244 243 253
267 261 261 266 268 270 271 270 267 267 266 268 271 274 275 275 275 275 277 278 280 275 273 275 279 283 286 289 293 295 299 298 293 276 260 252 253 253 247 239 237 235 232 234
252 256 255 261 264 264 266 267 268 268 270 272 272 271 270 271 272 276 280 283 283 282 274 274 276 280 284 286 286 287 287 286 287 289 293 293 286 275 266 265 262 257 254 260
251 254 256 258 264 265 266 265 267 267 269 269 269 269 273 277 275 276 280 286 289 289 287 281 275 278 282 284 284 283 280 276 274 273 275 276 280 278 277 278 279 279 277 273
255 260 261 265 264 261 259 266 271 269 269 268 269 271 274 277 277 276 276 278 278 280 281 280 276 276 278 279 279 278 275 274 272 269 270 269 270 269 269 270 271 269 268 267
259 271 272 274 274 268 266 264 266 275 275 273 273 275 276 276 277 275 275 275 274 275 275 280 280 277 276 275 276 278 277 275 274 272 272 268 267 263 263 264 264 264 264 264
275 278 280 275 290 287 278 276 278 280 278 277 276 276 275 275 278 278 279 279 279 277 278 279 281 282 279 277 275 274 273 273 274 274 271 268 266 265 264 264 263 263 263 263
271 274 282 282 284 284 289 284 278 273 279 282 282 282 281 284 285 284 281 282 283 278 281 281 283 283 280 277 274 274 274 274 272 270 270 269 268 268 265 264 263 263 262 262
266 284 285 289 287 282 282 286 289 290 290 289 287 284 284 283 286 287 287 288 287 285 285 283 282 282 282 279 277 276 274 272 272 272 271 270 270 269 268 267 267 267 267 267
275 284 286 289 288 285 286 289 291 292 293 292 289 288 288 288 287 287 286 286 284 282 281 280 279 277 276 275 274 274 273 273 272 271 271 270 270 270 269 269 269 270 270 270
289 291 294 297 300 299 297 296 295 294 294 294 293 293 292 291 290 289 288 288 286 285 283 282 280 279 277 275 273 272 271 271 271 271 271 271 270 270 270 269 269 270 270 270
296 299 300 301 302 302 302 301 301 301 301 300 299 298 298 296 294 293 292 290 291 289 287 285 283 281 279 278 277 275 274 273 271 270 269 269 269 270 270 270 270 270 270 270
308 318 323 318 312 308 308 307 305 303 301 301 300 299 299 298 298 297 296 294 292 290 288 286 284 282 280 278 276 274 273 272 271 269 267 266 266 267 267 268 268 269 269 269
330 322 319 321 323 319 315 312 309 307 307 306 307 307 306 305 303 301 298 297 296 294 292 289 287 284 281 279 277 275 273 271 269 267 266 265 265 265 266 267 268 269 270 271
324 325 329 329 329 324 320 317 314 313 312 314 313 312 311 308 305 304 302 300 298 296 294 291 290 288 286 283 281 279 277 276 275 273 271 270 269 269 268 268 268 268 269 270
332 330 329 329 327 324 321 319 318 319 318 318 317 316 313 311 309 307 305 303 301 299 298 298 297 295 294 291 288 285 281 279 276 275 274 273 272 272 271 271 270 270 271 271
326 329 329 329 328 325 324 322 323 322 324 324 325 321 318 315 312 310 308 306 304 302 301 300 300 301 301 299 296 292 288 284 280 278 275 274 273 273 273 272 271 271 271 272
328 328 329 329 329 327 325 325 326 327 329 329 328 326 322 319 316 314 311 307 305 304 301 301 302 304 305 303 299 298 295 291 286 281 279 276 275 273 272 272 273 273 274 274